Powrót do katalogu

DELTA 1 DEB

AktywnyPO
NORAD 19594·DEBRIS·🇺🇸 United States

Wystrzelony Mar 5, 1978 z Vandenberg Space Force Base

Loading…

Następne Przeloty (najbliższe 24 godziny)

TLE

ŚwieżeSource: Space-Track

Epoka: Sep 13, 2026, 10:22 UTC

1 19594U 78026HN  26256.43198215  .00007664  00000-0  16880-2 0  9993
2 19594  98.8737 323.7036 0065795 236.0547 123.4383 14.56382094719020

Śledź DELTA 1 DEB w czasie rzeczywistym z AllMySat

Download on the App Store